Hourly Weather Russko-Lyutino

Today, 15 April, Thursday

Time Temperature Precipitation Wind Pressure Humidity
00:00 +9°C° 0 mm 2 mps 756 mmHg 86%
01:00 +8°C° 0 mm 2 mps 756 mmHg 86%
02:00 +9°C° 0 mm 1 mps 756 mmHg 87%
03:00 +9°C° 0 mm 1 mps 756 mmHg 87%
04:00 +8°C° 0 mm 1 mps 756 mmHg 87%
05:00 +8°C° 0 mm 1 mps 756 mmHg 86%
06:00 +8°C° 0 mm 1 mps 756 mmHg 86%
07:00 +9°C° 0 mm 2 mps 756 mmHg 82%
08:00 +10°C° 0 mm 2 mps 756 mmHg 78%
09:00 +12°C° 0 mm 3 mps 756 mmHg 73%
10:00 +13°C° 0 mm 3 mps 756 mmHg 68%
11:00 +14°C° 0 mm 4 mps 756 mmHg 64%
12:00 +15°C° 0 mm 4 mps 756 mmHg 59%
13:00 +15°C° 0 mm 5 mps 756 mmHg 59%
14:00 +15°C° 0 mm 6 mps 756 mmHg 59%
15:00 +15°C° 0 mm 7 mps 756 mmHg 59%
16:00 +15°C° 0 mm 6 mps 756 mmHg 62%
17:00 +14°C° 0 mm 6 mps 756 mmHg 65%
18:00 +13°C° 0 mm 5 mps 756 mmHg 69%
19:00 +12°C° 0 mm 4 mps 756 mmHg 75%
20:00 +11°C° 0 mm 3 mps 756 mmHg 82%
21:00 +10°C° 0 mm 2 mps 756 mmHg 89%
22:00 +9°C° 0 mm 2 mps 756 mmHg 89%
23:00 +9°C° 0 mm 2 mps 756 mmHg 89%

Tomorrow, 16 April, Friday

Time Temperature Precipitation Wind Pressure Humidity
00:00 +8°C° 0 mm 2 mps 756 mmHg 89%
01:00 +8°C° 0 mm 2 mps 756 mmHg 89%
02:00 +7°C° 0 mm 2 mps 756 mmHg 89%
03:00 +8°C° 0 mm 1 mps 756 mmHg 89%
04:00 +8°C° 0 mm 1 mps 757 mmHg 90%
05:00 +8°C° 0 mm 1 mps 757 mmHg 91%
06:00 +7°C° 0 mm 1 mps 757 mmHg 92%
07:00 +9°C° 0 mm 1 mps 757 mmHg 85%
08:00 +9°C° 0 mm 2 mps 757 mmHg 77%
09:00 +12°C° 0 mm 2 mps 757 mmHg 70%
10:00 +12°C° 0 mm 3 mps 757 mmHg 65%
11:00 +13°C° 0 mm 4 mps 757 mmHg 60%
12:00 +14°C° 0 mm 4 mps 757 mmHg 55%
13:00 +14°C° 0 mm 5 mps 758 mmHg 54%
14:00 +14°C° 0 mm 5 mps 758 mmHg 53%
15:00 +14°C° 0 mm 6 mps 758 mmHg 52%
16:00 +13°C° 0 mm 5 mps 758 mmHg 55%
17:00 +13°C° 0 mm 4 mps 758 mmHg 58%
18:00 +12°C° 0 mm 4 mps 758 mmHg 60%
19:00 +11°C° 0 mm 3 mps 758 mmHg 65%
20:00 +10°C° 0 mm 3 mps 758 mmHg 71%
21:00 +9°C° 0 mm 2 mps 758 mmHg 76%
22:00 +9°C° 0 mm 2 mps 758 mmHg 76%
23:00 +9°C° 0 mm 2 mps 758 mmHg 77%

Day after tomorrow, 17 April, Saturday

Time Temperature Precipitation Wind Pressure Humidity
00:00 +8°C° 0 mm 2 mps 758 mmHg 78%
01:00 +8°C° 0 mm 2 mps 758 mmHg 81%
02:00 +7°C° 0 mm 2 mps 758 mmHg 83%
03:00 +7°C° 0 mm 2 mps 758 mmHg 86%
04:00 +6°C° 0 mm 2 mps 758 mmHg 88%
05:00 +7°C° 0 mm 1 mps 758 mmHg 89%
06:00 +7°C° 0 mm 1 mps 759 mmHg 90%
07:00 +7°C° 0.1 mm 2 mps 759 mmHg 84%
08:00 +9°C° 0.1 mm 2 mps 759 mmHg 79%
09:00 +10°C° 0.1 mm 3 mps 759 mmHg 73%
10:00 +11°C° 0 mm 3 mps 759 mmHg 64%
11:00 +12°C° 0 mm 4 mps 759 mmHg 56%
12:00 +13°C° 0 mm 4 mps 759 mmHg 47%
13:00 +13°C° 0 mm 4 mps 759 mmHg 46%
14:00 +14°C° 0 mm 4 mps 759 mmHg 45%
15:00 +14°C° 0 mm 4 mps 759 mmHg 44%
16:00 +13°C° 0 mm 4 mps 759 mmHg 48%
17:00 +13°C° 0 mm 4 mps 759 mmHg 52%
18:00 +12°C° 0 mm 4 mps 759 mmHg 55%
19:00 +11°C° 0 mm 3 mps 760 mmHg 61%
20:00 +10°C° 0 mm 3 mps 760 mmHg 67%
21:00 +8°C° 0 mm 2 mps 760 mmHg 73%
22:00 +8°C° 0 mm 2 mps 760 mmHg 74%
23:00 +7°C° 0 mm 2 mps 760 mmHg 75%

18 April, Sunday

Time Temperature Precipitation Wind Pressure Humidity
00:00 +7°C° 0 mm 2 mps 760 mmHg 76%
01:00 +6°C° 0 mm 2 mps 760 mmHg 76%
02:00 +6°C° 0 mm 2 mps 760 mmHg 76%
03:00 +7°C° 0 mm 1 mps 759 mmHg 76%
04:00 +7°C° 0 mm 1 mps 759 mmHg 76%
05:00 +7°C° 0 mm 1 mps 759 mmHg 76%
06:00 +7°C° 0 mm 1 mps 759 mmHg 77%
07:00 +8°C° 0 mm 1 mps 759 mmHg 72%
08:00 +9°C° 0 mm 1 mps 759 mmHg 67%
09:00 +11°C° 0 mm 1 mps 758 mmHg 63%
10:00 +12°C° 0 mm 1 mps 758 mmHg 58%
11:00 +13°C° 0 mm 1 mps 758 mmHg 54%
12:00 +14°C° 0 mm 1 mps 758 mmHg 49%
13:00 +14°C° 0 mm 1 mps 758 mmHg 48%
14:00 +14°C° 0 mm 1 mps 758 mmHg 48%
15:00 +15°C° 0 mm 1 mps 758 mmHg 47%
16:00 +15°C° 0 mm 2 mps 758 mmHg 48%
17:00 +14°C° 0 mm 2 mps 757 mmHg 49%
18:00 +14°C° 0 mm 2 mps 757 mmHg 51%
19:00 +13°C° 0 mm 2 mps 757 mmHg 55%
20:00 +12°C° 0 mm 2 mps 757 mmHg 60%
21:00 +10°C° 0 mm 2 mps 757 mmHg 65%
22:00 +11°C° 0 mm 1 mps 757 mmHg 67%
23:00 +10°C° 0 mm 1 mps 757 mmHg 69%

19 April, Monday

Time Temperature Precipitation Wind Pressure Humidity
00:00 +9°C° 0 mm 0 mps 757 mmHg 71%
01:00 +9°C° 0 mm 0 mps 757 mmHg 72%
02:00 +8°C° 0 mm 0 mps 757 mmHg 72%
03:00 +9°C° 0 mm 1 mps 757 mmHg 72%
04:00 +9°C° 0 mm 1 mps 757 mmHg 72%
05:00 +9°C° 0 mm 1 mps 757 mmHg 73%
06:00 +9°C° 0 mm 1 mps 757 mmHg 73%
07:00 +10°C° 0 mm 2 mps 757 mmHg 67%
08:00 +12°C° 0 mm 2 mps 757 mmHg 61%
09:00 +14°C° 0 mm 2 mps 757 mmHg 54%
10:00 +15°C° 0 mm 2 mps 756 mmHg 50%
11:00 +16°C° 0 mm 2 mps 756 mmHg 46%
12:00 +17°C° 0 mm 3 mps 756 mmHg 42%
13:00 +17°C° 0 mm 3 mps 756 mmHg 41%
14:00 +18°C° 0 mm 3 mps 755 mmHg 41%
15:00 +18°C° 0 mm 3 mps 755 mmHg 40%
16:00 +17°C° 0 mm 3 mps 755 mmHg 44%
17:00 +17°C° 0 mm 3 mps 754 mmHg 47%
18:00 +16°C° 0 mm 3 mps 754 mmHg 51%
19:00 +14°C° 0.2 mm 3 mps 754 mmHg 58%
20:00 +13°C° 0.2 mm 3 mps 754 mmHg 65%
21:00 +12°C° 0.2 mm 3 mps 754 mmHg 72%
22:00 +12°C° 0.4 mm 4 mps 753 mmHg 76%
23:00 +12°C° 0.4 mm 5 mps 753 mmHg 81%

20 April, Tuesday

Time Temperature Precipitation Wind Pressure Humidity
00:00 +10°C° 0.4 mm 5 mps 752 mmHg 85%
01:00 +10°C° 1.4 mm 6 mps 752 mmHg 86%
02:00 +9°C° 1.4 mm 6 mps 751 mmHg 87%
03:00 +9°C° 1.4 mm 7 mps 751 mmHg 89%
04:00 +9°C° 1.6 mm 7 mps 750 mmHg 90%
05:00 +9°C° 1.6 mm 8 mps 749 mmHg 92%
06:00 +9°C° 1.6 mm 8 mps 748 mmHg 93%
07:00 +8°C° 0.9 mm 9 mps 747 mmHg 93%
08:00 +8°C° 0.9 mm 10 mps 746 mmHg 93%
09:00 +8°C° 0.9 mm 11 mps 745 mmHg 93%
10:00 +9°C° 0.1 mm 10 mps 745 mmHg 92%
11:00 +11°C° 0.1 mm 9 mps 745 mmHg 91%
12:00 +12°C° 0.1 mm 8 mps 744 mmHg 90%
13:00 +15°C° 0.1 mm 8 mps 745 mmHg 80%
14:00 +16°C° 0.1 mm 9 mps 745 mmHg 70%
15:00 +17°C° 0.1 mm 9 mps 746 mmHg 60%
16:00 +16°C° 0 mm 8 mps 746 mmHg 65%
17:00 +15°C° 0 mm 7 mps 746 mmHg 70%
18:00 +14°C° 0 mm 6 mps 747 mmHg 75%
19:00 +13°C° 0 mm 6 mps 747 mmHg 78%
20:00 +10°C° 0 mm 5 mps 748 mmHg 81%
21:00 +10°C° 0 mm 4 mps 748 mmHg 84%
22:00 +10°C° 0 mm 4 mps 748 mmHg 85%
23:00 +8°C° 0 mm 4 mps 748 mmHg 87%
Show more